| time (UTC) | temp C | wind direction | speed KPH | gust KPH | rain 1hr cm | rain 24hr cm | rain mn cm | humidity % | barometer mb |
| 20260507000051 | 7 | 304 | 17.7 | 24.1 | 0.00 | 0.00 | 0.00 | 75 | 1024.0 |
| 20260506235519 | 7 | 308 | 17.7 | 22.5 | 0.00 | 0.00 | 0.00 | 73 | 1024.0 |
| 20260506235017 | 7 | 300 | 16.1 | 22.5 | 0.00 | 0.00 | 0.00 | 73 | 1023.9 |
| 20260506234601 | 7 | 267 | 16.1 | 24.1 | 0.00 | 0.00 | 0.00 | 73 | 1023.9 |
| 20260506234015 | 7 | 281 | 14.5 | 25.7 | 0.00 | 0.00 | 0.00 | 74 | 1023.9 |
| 20260506233518 | 7 | 304 | 20.9 | 25.7 | 0.00 | 0.00 | 0.00 | 73 | 1023.8 |
| 20260506233055 | 7 | 304 | 17.7 | 22.5 | 0.00 | 0.00 | 0.00 | 72 | 1023.8 |
| 20260506232519 | 7 | 321 | 16.1 | 22.5 | 0.00 | 0.00 | 0.00 | 72 | 1023.7 |
| 20260506232017 | 7 | 283 | 12.9 | 22.5 | 0.00 | 0.00 | 0.00 | 73 | 1023.8 |
| 20260506231553 | 7 | 296 | 14.5 | 20.9 | 0.00 | 0.00 | 0.00 | 74 | 1023.8 |
| 20260506231015 | 7 | 303 | 16.1 | 22.5 | 0.00 | 0.00 | 0.00 | 73 | 1023.7 |
| 20260506230516 | 7 | 302 | 17.7 | 25.7 | 0.00 | 0.00 | 0.00 | 74 | 1023.6 |
| 20260506230107 | 7 | 311 | 16.1 | 24.1 | 0.00 | 0.00 | 0.00 | 73 | 1023.6 |
| 20260506225519 | 7 | 301 | 17.7 | 25.7 | 0.00 | 0.00 | 0.00 | 73 | 1023.6 |
| 20260506225025 | 7 | 315 | 14.5 | 24.1 | 0.00 | 0.00 | 0.00 | 72 | 1023.6 |
| 20260506224600 | 7 | 300 | 14.5 | 24.1 | 0.00 | 0.00 | 0.00 | 72 | 1023.5 |
| 20260506224015 | 7 | 299 | 14.5 | 24.1 | 0.00 | 0.00 | 0.00 | 72 | 1023.5 |
| 20260506223519 | 7 | 293 | 16.1 | 27.4 | 0.00 | 0.00 | 0.00 | 71 | 1023.5 |
| 20260506223054 | 7 | 301 | 17.7 | 29.0 | 0.00 | 0.00 | 0.00 | 70 | 1023.5 |
| 20260506222519 | 8 | 300 | 12.9 | 29.0 | 0.00 | 0.00 | 0.00 | 70 | 1023.5 |
| 20260506222019 | 8 | 306 | 12.9 | 24.1 | 0.00 | 0.00 | 0.00 | 68 | 1023.4 |
| 20260506221558 | 8 | 294 | 17.7 | 24.1 | 0.00 | 0.00 | 0.00 | 68 | 1023.3 |
| 20260506221020 | 8 | 304 | 16.1 | 20.9 | 0.00 | 0.00 | 0.00 | 68 | 1023.4 |
| 20260506220518 | 8 | 302 | 14.5 | 20.9 | 0.00 | 0.00 | 0.00 | 69 | 1023.3 |
| 20260506220052 | 8 | 290 | 12.9 | 20.9 | 0.00 | 0.00 | 0.00 | 68 | 1023.4 |
| 20260506215519 | 8 | 304 | 12.9 | 24.1 | 0.00 | 0.00 | 0.00 | 69 | 1023.4 |
| 20260506215016 | 7 | 309 | 14.5 | 24.1 | 0.00 | 0.00 | 0.00 | 68 | 1023.5 |
| 20260506214559 | 8 | 298 | 17.7 | 27.4 | 0.00 | 0.00 | 0.00 | 67 | 1023.3 |
| 20260506214025 | 8 | 293 | 19.3 | 27.4 | 0.00 | 0.00 | 0.00 | 67 | 1023.2 |
| 20260506213522 | 8 | 311 | 17.7 | 24.1 | 0.00 | 0.00 | 0.00 | 67 | 1023.3 |
| 20260506213055 | 8 | 300 | 17.7 | 25.7 | 0.00 | 0.00 | 0.00 | 68 | 1023.2 |
| 20260506212518 | 8 | 316 | 19.3 | 25.7 | 0.00 | 0.00 | 0.00 | 67 | 1023.1 |
| 20260506212017 | 8 | 315 | 14.5 | 20.9 | 0.00 | 0.00 | 0.00 | 68 | 1023.0 |
| 20260506211552 | 8 | 325 | 9.7 | 19.3 | 0.00 | 0.00 | 0.00 | 67 | 1023.0 |
| 20260506211021 | 8 | 277 | 14.5 | 19.3 | 0.00 | 0.00 | 0.00 | 68 | 1022.9 |
| 20260506210517 | 8 | 297 | 11.3 | 19.3 | 0.00 | 0.00 | 0.00 | 67 | 1022.9 |
| 20260506210100 | 8 | 323 | 12.9 | 19.3 | 0.00 | 0.00 | 0.00 | 67 | 1023.0 |
| 20260506205516 | 8 | 312 | 12.9 | 20.9 | 0.00 | 0.00 | 0.00 | 67 | 1023.0 |
| 20260506205021 | 8 | 295 | 14.5 | 20.9 | 0.00 | 0.00 | 0.00 | 66 | 1022.9 |
| 20260506204559 | 8 | 304 | 12.9 | 20.9 | 0.00 | 0.00 | 0.00 | 65 | 1022.9 |
| 20260506204017 | 8 | 290 | 12.9 | 19.3 | 0.00 | 0.00 | 0.00 | 66 | 1022.8 |
| 20260506203516 | 8 | 303 | 9.7 | 17.7 | 0.00 | 0.00 | 0.00 | 67 | 1022.8 |
| 20260506203110 | 7 | 289 | 9.7 | 16.1 | 0.00 | 0.00 | 0.00 | 68 | 1022.8 |
| 20260506202516 | 7 | 298 | 11.3 | 16.1 | 0.00 | 0.00 | 0.00 | 68 | 1022.6 |
| 20260506202019 | 7 | 330 | 8.0 | 16.1 | 0.00 | 0.00 | 0.00 | 67 | 1022.6 |
| 20260506201536 | 7 | 294 | 6.4 | 17.7 | 0.00 | 0.00 | 0.00 | 66 | 1022.6 |
| 20260506201010 | 7 | 308 | 11.3 | 19.3 | 0.00 | 0.00 | 0.00 | 68 | 1022.7 |
| 20260506200510 | 7 | 298 | 11.3 | 20.9 | 0.00 | 0.00 | 0.00 | 69 | 1022.6 |
| 20260506200033 | 7 | 345 | 14.5 | 20.9 | 0.00 | 0.00 | 0.00 | 68 | 1022.7 |
| 20260506195509 | 7 | 294 | 14.5 | 20.9 | 0.00 | 0.00 | 0.00 | 68 | 1022.6 |
| 20260506195010 | 7 | 309 | 12.9 | 20.9 | 0.00 | 0.00 | 0.00 | 68 | 1022.6 |
| 20260506194526 | 7 | 311 | 11.3 | 20.9 | 0.00 | 0.00 | 0.00 | 70 | 1022.5 |
| 20260506194013 | 7 | 302 | 12.9 | 20.9 | 0.00 | 0.00 | 0.00 | 70 | 1022.6 |
| 20260506193510 | 7 | 311 | 9.7 | 17.7 | 0.00 | 0.00 | 0.00 | 71 | 1022.7 |
| 20260506193028 | 7 | 291 | 12.9 | 17.7 | 0.00 | 0.00 | 0.00 | 72 | 1022.6 |
| 20260506192509 | 7 | 300 | 11.3 | 17.7 | 0.00 | 0.00 | 0.00 | 71 | 1022.5 |
| 20260506192014 | 7 | 293 | 9.7 | 17.7 | 0.00 | 0.00 | 0.00 | 72 | 1022.6 |
| 20260506191528 | 7 | 309 | 11.3 | 17.7 | 0.00 | 0.00 | 0.00 | 73 | 1022.5 |
| 20260506191010 | 7 | 246 | 9.7 | 20.9 | 0.00 | 0.00 | 0.00 | 73 | 1022.6 |
| 20260506190510 | 7 | 297 | 12.9 | 20.9 | 0.00 | 0.00 | 0.00 | 74 | 1022.5 |
| 20260506190028 | 6 | 291 | 12.9 | 17.7 | 0.00 | 0.00 | 0.00 | 73 | 1022.5 |
| 20260506185510 | 6 | 290 | 11.3 | 17.7 | 0.00 | 0.00 | 0.00 | 74 | 1022.5 |
| 20260506185009 | 6 | 284 | 11.3 | 17.7 | 0.00 | 0.00 | 0.00 | 73 | 1022.4 |
| 20260506184535 | 6 | 302 | 8.0 | 19.3 | 0.00 | 0.00 | 0.00 | 73 | 1022.4 |
| 20260506184013 | 7 | 309 | 12.9 | 19.3 | 0.00 | 0.00 | 0.00 | 73 | 1022.3 |
| 20260506183510 | 6 | 310 | 9.7 | 16.1 | 0.00 | 0.00 | 0.00 | 74 | 1022.3 |
| 20260506183025 | 6 | 294 | 8.0 | 16.1 | 0.00 | 0.00 | 0.00 | 75 | 1022.4 |
| 20260506182511 | 6 | 327 | 8.0 | 16.1 | 0.00 | 0.00 | 0.00 | 74 | 1022.4 |
| 20260506182011 | 6 | 322 | 9.7 | 14.5 | 0.00 | 0.00 | 0.00 | 75 | 1022.4 |
| 20260506181528 | 6 | 302 | 8.0 | 19.3 | 0.00 | 0.00 | 0.00 | 75 | 1022.3 |
| 20260506181011 | 6 | 300 | 8.0 | 20.9 | 0.00 | 0.00 | 0.00 | 74 | 1022.4 |
| 20260506180511 | 6 | 307 | 9.7 | 20.9 | 0.00 | 0.00 | 0.00 | 73 | 1022.3 |
| 20260506180030 | 6 | 309 | 3.2 | 16.1 | 0.00 | 0.00 | 0.00 | 74 | 1022.5 |
| 20260506175512 | 6 | 307 | 11.3 | 16.1 | 0.00 | 0.00 | 0.00 | 75 | 1022.4 |
| 20260506175012 | 6 | 296 | 4.8 | 12.9 | 0.00 | 0.00 | 0.00 | 75 | 1022.4 |
| 20260506174530 | 6 | 316 | 6.4 | 20.9 | 0.00 | 0.00 | 0.00 | 75 | 1022.4 |
| 20260506174009 | 6 | 297 | 14.5 | 20.9 | 0.00 | 0.00 | 0.00 | 74 | 1022.4 |
| 20260506173512 | 6 | 297 | 12.9 | 16.1 | 0.00 | 0.00 | 0.00 | 75 | 1022.3 |
| 20260506173032 | 6 | 309 | 9.7 | 16.1 | 0.00 | 0.00 | 0.00 | 75 | 1022.3 |
| 20260506172508 | 6 | 296 | 6.4 | 16.1 | 0.00 | 0.00 | 0.00 | 75 | 1022.4 |
| 20260506172013 | 6 | 284 | 8.0 | 16.1 | 0.00 | 0.00 | 0.00 | 74 | 1022.4 |
| 20260506171530 | 6 | 277 | 9.7 | 19.3 | 0.00 | 0.00 | 0.00 | 76 | 1022.3 |
| 20260506171012 | 6 | 296 | 11.3 | 19.3 | 0.00 | 0.00 | 0.00 | 76 | 1022.4 |
| 20260506170513 | 6 | 306 | 12.9 | 20.9 | 0.00 | 0.00 | 0.00 | 76 | 1022.2 |
| 20260506170029 | 6 | 299 | 12.9 | 20.9 | 0.00 | 0.00 | 0.00 | 77 | 1022.3 |
| 20260506165511 | 6 | 296 | 8.0 | 17.7 | 0.00 | 0.00 | 0.00 | 77 | 1022.3 |
| 20260506165010 | 6 | 303 | 11.3 | 17.7 | 0.00 | 0.00 | 0.00 | 76 | 1022.2 |
| 20260506164528 | 6 | 304 | 8.0 | 17.7 | 0.00 | 0.00 | 0.00 | 76 | 1022.3 |
| 20260506164014 | 6 | 313 | 9.7 | 17.7 | 0.00 | 0.00 | 0.00 | 77 | 1022.2 |
| 20260506163510 | 6 | 279 | 12.9 | 20.9 | 0.00 | 0.00 | 0.00 | 77 | 1022.1 |
| 20260506163035 | 6 | 312 | 11.3 | 20.9 | 0.00 | 0.00 | 0.00 | 77 | 1022.1 |
| 20260506162511 | 6 | 287 | 11.3 | 17.7 | 0.00 | 0.00 | 0.00 | 76 | 1021.8 |
| 20260506162012 | 6 | 264 | 8.0 | 17.7 | 0.00 | 0.00 | 0.00 | 78 | 1022.0 |
| 20260506161530 | 6 | 276 | 8.0 | 17.7 | 0.00 | 0.00 | 0.00 | 76 | 1022.0 |
| 20260506161010 | 6 | 312 | 9.7 | 17.7 | 0.00 | 0.00 | 0.00 | 77 | 1021.8 |
| 20260506160513 | 6 | 283 | 11.3 | 20.9 | 0.00 | 0.00 | 0.00 | 78 | 1021.9 |
| 20260506160031 | 6 | 276 | 14.5 | 20.9 | 0.00 | 0.00 | 0.00 | 78 | 1021.8 |
| 20260506155510 | 6 | 294 | 9.7 | 16.1 | 0.00 | 0.00 | 0.00 | 78 | 1021.8 |
| 20260506155009 | 6 | 265 | 9.7 | 22.5 | 0.00 | 0.00 | 0.00 | 79 | 1021.8 |
| 20260506154532 | 6 | 302 | 14.5 | 22.5 | 0.00 | 0.00 | 0.00 | 79 | 1021.5 |
| 20260506154016 | 5 | 288 | 12.9 | 20.9 | 0.00 | 0.00 | 0.00 | 78 | 1021.6 |
| 20260506153511 | 5 | 253 | 12.9 | 20.9 | 0.00 | 0.00 | 0.00 | 79 | 1021.5 |
| 20260506153027 | 5 | 264 | 11.3 | 20.9 | 0.00 | 0.00 | 0.00 | 79 | 1021.5 |
| 20260506152509 | 5 | 298 | 12.9 | 20.9 | 0.00 | 0.00 | 0.00 | 80 | 1021.6 |
| 20260506152012 | 5 | 288 | 6.4 | 17.7 | 0.00 | 0.00 | 0.00 | 81 | 1021.4 |
| 20260506151529 | 5 | 270 | 9.7 | 17.7 | 0.00 | 0.00 | 0.00 | 81 | 1021.3 |
| 20260506151013 | 5 | 281 | 8.0 | 20.9 | 0.00 | 0.00 | 0.00 | 81 | 1021.5 |
| 20260506150512 | 5 | 263 | 12.9 | 20.9 | 0.00 | 0.00 | 0.00 | 80 | 1021.2 |
| 20260506150029 | 5 | 282 | 11.3 | 22.5 | 0.00 | 0.00 | 0.00 | 81 | 1021.4 |
| 20260506145512 | 5 | 296 | 12.9 | 22.5 | 0.00 | 0.00 | 0.00 | 80 | 1021.3 |
| 20260506145009 | 5 | 297 | 11.3 | 22.5 | 0.00 | 0.00 | 0.00 | 80 | 1021.3 |
| 20260506144537 | 5 | 314 | 11.3 | 22.5 | 0.00 | 0.00 | 0.00 | 80 | 1021.3 |
| 20260506144012 | 5 | 293 | 14.5 | 22.5 | 0.00 | 0.00 | 0.00 | 81 | 1021.3 |
| 20260506143513 | 5 | 311 | 9.7 | 19.3 | 0.00 | 0.00 | 0.00 | 80 | 1021.2 |
| 20260506143029 | 5 | 285 | 11.3 | 20.9 | 0.00 | 0.00 | 0.00 | 81 | 1021.1 |
| 20260506142514 | 5 | 290 | 12.9 | 24.1 | 0.00 | 0.00 | 0.00 | 81 | 1021.1 |
| 20260506142010 | 5 | 287 | 12.9 | 24.1 | 0.00 | 0.00 | 0.00 | 81 | 1021.0 |
| 20260506141531 | 5 | 282 | 11.3 | 25.7 | 0.00 | 0.00 | 0.00 | 80 | 1021.0 |
| 20260506141016 | 5 | 275 | 12.9 | 22.5 | 0.00 | 0.00 | 0.00 | 80 | 1020.9 |
| 20260506140511 | 5 | 234 | 9.7 | 17.7 | 0.00 | 0.00 | 0.00 | 81 | 1021.2 |
| 20260506140032 | 5 | 258 | 8.0 | 20.9 | 0.00 | 0.00 | 0.00 | 80 | 1021.0 |
| 20260506135513 | 5 | 248 | 9.7 | 22.5 | 0.00 | 0.00 | 0.00 | 81 | 1020.9 |
| 20260506135010 | 5 | 247 | 14.5 | 25.7 | 0.00 | 0.00 | 0.00 | 80 | 1020.9 |
| 20260506134527 | 5 | 259 | 14.5 | 27.4 | 0.00 | 0.00 | 0.00 | 80 | 1020.8 |
| 20260506134012 | 5 | 258 | 17.7 | 29.0 | 0.00 | 0.00 | 0.00 | 79 | 1020.7 |
| 20260506133516 | 5 | 294 | 20.9 | 29.0 | 0.00 | 0.00 | 0.00 | 80 | 1020.5 |
| 20260506133028 | 5 | 271 | 17.7 | 30.6 | 0.00 | 0.00 | 0.00 | 80 | 1020.5 |
| 20260506132522 | 5 | 309 | 19.3 | 30.6 | 0.00 | 0.00 | 0.00 | 80 | 1020.5 |
| 20260506132012 | 5 | 295 | 16.1 | 20.9 | 0.00 | 0.00 | 0.00 | 80 | 1020.5 |
| 20260506131537 | 5 | 233 | 12.9 | 22.5 | 0.00 | 0.00 | 0.00 | 81 | 1020.5 |
| 20260506131014 | 5 | 278 | 14.5 | 24.1 | 0.00 | 0.00 | 0.00 | 81 | 1020.5 |
| 20260506130514 | 5 | 298 | 11.3 | 29.0 | 0.00 | 0.00 | 0.00 | 81 | 1020.6 |
| 20260506130028 | 5 | 284 | 19.3 | 29.0 | 0.00 | 0.00 | 0.00 | 81 | 1020.3 |
| 20260506125513 | 5 | 261 | 12.9 | 20.9 | 0.00 | 0.00 | 0.00 | 83 | 1020.6 |
| 20260506125013 | 5 | 283 | 6.4 | 20.9 | 0.00 | 0.00 | 0.00 | 83 | 1020.5 |
| 20260506124529 | 5 | 263 | 12.9 | 24.1 | 0.00 | 0.00 | 0.00 | 82 | 1020.4 |
| 20260506124011 | 5 | 262 | 11.3 | 24.1 | 0.00 | 0.00 | 0.00 | 82 | 1020.6 |
| 20260506123512 | 5 | 264 | 8.0 | 27.4 | 0.00 | 0.00 | 0.00 | 82 | 1020.2 |
| 20260506123035 | 6 | 273 | 11.3 | 27.4 | 0.00 | 0.00 | 0.00 | 82 | 1020.3 |
| 20260506122511 | 6 | 250 | 11.3 | 19.3 | 0.00 | 0.00 | 0.00 | 82 | 1020.4 |
| 20260506122010 | 6 | 314 | 11.3 | 19.3 | 0.00 | 0.00 | 0.00 | 83 | 1020.3 |
| 20260506121531 | 6 | 277 | 8.0 | 19.3 | 0.00 | 0.00 | 0.00 | 83 | 1020.3 |
| 20260506121011 | 6 | 269 | 11.3 | 17.7 | 0.00 | 0.00 | 0.00 | 83 | 1020.4 |
| 20260506120512 | 6 | 284 | 6.4 | 16.1 | 0.00 | 0.00 | 0.00 | 83 | 1020.3 |
| 20260506120036 | 6 | 279 | 8.0 | 17.7 | 0.00 | 0.00 | 0.00 | 82 | 1020.3 |
| 20260506115516 | 6 | 292 | 9.7 | 19.3 | 0.00 | 0.00 | 0.00 | 83 | 1020.2 |
| 20260506115016 | 6 | 269 | 8.0 | 19.3 | 0.00 | 0.00 | 0.00 | 83 | 1020.2 |
| 20260506114538 | 6 | 302 | 6.4 | 17.7 | 0.00 | 0.00 | 0.00 | 82 | 1020.3 |
| 20260506114012 | 6 | 281 | 9.7 | 17.7 | 0.00 | 0.00 | 0.00 | 83 | 1020.2 |
| 20260506113511 | 6 | 291 | 9.7 | 19.3 | 0.00 | 0.00 | 0.00 | 82 | 1019.9 |
| 20260506113041 | 6 | 285 | 11.3 | 20.9 | 0.00 | 0.00 | 0.00 | 82 | 1019.9 |
| 20260506112512 | 6 | 292 | 11.3 | 20.9 | 0.00 | 0.00 | 0.00 | 81 | 1019.9 |
| 20260506112012 | 6 | 317 | 9.7 | 20.9 | 0.00 | 0.00 | 0.00 | 83 | 1019.9 |
| 20260506111535 | 6 | 292 | 9.7 | 20.9 | 0.00 | 0.00 | 0.00 | 84 | 1019.9 |
| 20260506111012 | 6 | 291 | 9.7 | 22.5 | 0.00 | 0.00 | 0.00 | 84 | 1019.9 |
| 20260506110511 | 6 | 315 | 11.3 | 22.5 | 0.00 | 0.00 | 0.00 | 83 | 1019.8 |
| 20260506110047 | 6 | 293 | 6.4 | 16.1 | 0.00 | 0.00 | 0.00 | 84 | 1019.8 |
| 20260506105511 | 6 | 278 | 9.7 | 16.1 | 0.00 | 0.00 | 0.00 | 83 | 1019.8 |
| 20260506105014 | 6 | 295 | 9.7 | 22.5 | 0.00 | 0.00 | 0.00 | 84 | 1020.0 |
| 20260506104541 | 6 | 315 | 14.5 | 22.5 | 0.00 | 0.00 | 0.00 | 83 | 1019.6 |
| 20260506104010 | 6 | 286 | 9.7 | 22.5 | 0.00 | 0.00 | 0.00 | 84 | 1019.7 |
| 20260506103514 | 6 | 300 | 9.7 | 22.5 | 0.00 | 0.00 | 0.00 | 85 | 1019.7 |
| 20260506103045 | 6 | 290 | 9.7 | 16.1 | 0.00 | 0.00 | 0.00 | 85 | 1019.6 |
| 20260506102515 | 6 | 321 | 8.0 | 22.5 | 0.00 | 0.00 | 0.00 | 85 | 1019.6 |
| 20260506102011 | 6 | 290 | 12.9 | 22.5 | 0.00 | 0.00 | 0.00 | 84 | 1019.8 |
| 20260506101548 | 6 | 287 | 9.7 | 19.3 | 0.00 | 0.00 | 0.00 | 85 | 1019.8 |
| 20260506101013 | 6 | 279 | 11.3 | 19.3 | 0.00 | 0.00 | 0.00 | 85 | 1019.9 |
| 20260506100512 | 6 | 311 | 12.9 | 19.3 | 0.00 | 0.00 | 0.00 | 85 | 1019.4 |
| 20260506100100 | 6 | 309 | 6.4 | 12.9 | 0.00 | 0.00 | 0.00 | 85 | 1019.7 |
| 20260506095513 | 6 | 288 | 4.8 | 14.5 | 0.00 | 0.00 | 0.00 | 85 | 1019.6 |
| 20260506095013 | 6 | 314 | 6.4 | 14.5 | 0.00 | 0.00 | 0.00 | 85 | 1019.8 |
| 20260506094535 | 6 | 290 | 6.4 | 17.7 | 0.00 | 0.00 | 0.00 | 85 | 1019.7 |
| 20260506094017 | 6 | 292 | 6.4 | 17.7 | 0.00 | 0.00 | 0.00 | 85 | 1019.6 |
| 20260506093513 | 6 | 277 | 9.7 | 16.1 | 0.00 | 0.00 | 0.00 | 85 | 1019.6 |
| 20260506093040 | 6 | 284 | 4.8 | 17.7 | 0.00 | 0.00 | 0.00 | 85 | 1019.5 |
| 20260506092512 | 6 | 294 | 8.0 | 16.1 | 0.00 | 0.00 | 0.00 | 85 | 1019.5 |
| 20260506092016 | 6 | 285 | 8.0 | 16.1 | 0.00 | 0.00 | 0.00 | 84 | 1019.5 |
| 20260506091538 | 6 | 252 | 6.4 | 17.7 | 0.00 | 0.00 | 0.00 | 84 | 1019.6 |
| 20260506091013 | 6 | 300 | 11.3 | 17.7 | 0.00 | 0.00 | 0.00 | 84 | 1019.4 |
| 20260506090512 | 6 | 294 | 8.0 | 19.3 | 0.00 | 0.00 | 0.00 | 85 | 1019.4 |
| 20260506090035 | 6 | 265 | 8.0 | 19.3 | 0.00 | 0.00 | 0.00 | 85 | 1019.4 |
| 20260506085513 | 6 | 293 | 8.0 | 17.7 | 0.00 | 0.00 | 0.00 | 84 | 1019.4 |
| 20260506085012 | 6 | 279 | 6.4 | 14.5 | 0.00 | 0.00 | 0.00 | 84 | 1019.5 |
| 20260506084545 | 6 | 278 | 6.4 | 14.5 | 0.00 | 0.00 | 0.00 | 85 | 1019.5 |
| 20260506084013 | 6 | 285 | 8.0 | 14.5 | 0.00 | 0.00 | 0.00 | 84 | 1019.5 |
| 20260506083515 | 6 | 294 | 8.0 | 14.5 | 0.00 | 0.00 | 0.00 | 83 | 1019.5 |
| 20260506083033 | 6 | 307 | 8.0 | 16.1 | 0.00 | 0.00 | 0.00 | 83 | 1019.3 |
| 20260506082512 | 6 | 306 | 8.0 | 17.7 | 0.00 | 0.00 | 0.00 | 83 | 1019.2 |
| 20260506082014 | 6 | 302 | 9.7 | 17.7 | 0.00 | 0.00 | 0.00 | 83 | 1019.4 |
| 20260506081544 | 6 | 293 | 9.7 | 16.1 | 0.00 | 0.00 | 0.00 | 83 | 1019.3 |
| 20260506081011 | 6 | 279 | 8.0 | 16.1 | 0.00 | 0.00 | 0.00 | 82 | 1019.1 |
| 20260506080514 | 6 | 207 | 8.0 | 17.7 | 0.00 | 0.00 | 0.00 | 83 | 1019.1 |
| 20260506073515 | 6 | 273 | 6.4 | 22.5 | 0.00 | 0.00 | 0.00 | 78 | 1019.1 |
| 20260506073042 | 6 | 299 | 12.9 | 22.5 | 0.00 | 0.00 | 0.00 | 78 | 1018.9 |
| 20260506072515 | 6 | 280 | 8.0 | 24.1 | 0.00 | 0.00 | 0.00 | 78 | 1018.9 |
| 20260506072013 | 6 | 267 | 14.5 | 20.9 | 0.00 | 0.00 | 0.00 | 77 | 1018.8 |
| 20260506071539 | 6 | 269 | 12.9 | 19.3 | 0.00 | 0.00 | 0.00 | 77 | 1018.9 |
| 20260506071018 | 6 | 258 | 12.9 | 19.3 | 0.00 | 0.00 | 0.00 | 77 | 1018.8 |
| 20260506070513 | 6 | 225 | 8.0 | 12.9 | 0.00 | 0.00 | 0.00 | 78 | 1018.8 |
| 20260506062514 | 6 | 279 | 8.0 | 17.7 | 0.00 | 0.00 | 0.00 | 77 | 1018.7 |
| 20260506062013 | 6 | 284 | 9.7 | 20.9 | 0.00 | 0.00 | 0.00 | 77 | 1018.8 |
| 20260506061535 | 6 | 284 | 11.3 | 20.9 | 0.00 | 0.00 | 0.00 | 77 | 1018.6 |
| 20260506061017 | 6 | 275 | 11.3 | 20.9 | 0.00 | 0.00 | 0.00 | 77 | 1018.7 |
| 20260506060517 | 6 | 293 | 11.3 | 19.3 | 0.00 | 0.00 | 0.00 | 77 | 1018.6 |
| 20260506051014 | 7 | 261 | 14.5 | 27.4 | 0.00 | 0.00 | 0.00 | 74 | 1018.5 |
| 20260506050514 | 7 | 323 | 14.5 | 27.4 | 0.00 | 0.00 | 0.00 | 75 | 1018.2 |
| 20260506045016 | 7 | 261 | 17.7 | 27.4 | 0.00 | 0.00 | 0.00 | 73 | 1017.9 |
| 20260506044615 | 7 | 344 | 14.5 | 27.4 | 0.00 | 0.00 | 0.00 | 74 | 1017.9 |
| 20260506044016 | 7 | 288 | 16.1 | 30.6 | 0.00 | 0.00 | 0.00 | 74 | 1017.9 |
| 20260506043515 | 7 | 288 | 19.3 | 30.6 | 0.00 | 0.00 | 0.00 | 73 | 1018.0 |
| 20260506043042 | 8 | 261 | 16.1 | 25.7 | 0.00 | 0.00 | 0.00 | 74 | 1017.8 |
| 20260506042514 | 8 | 308 | 12.9 | 27.4 | 0.00 | 0.00 | 0.00 | 75 | 1017.8 |
| 20260506042016 | 8 | 344 | 9.7 | 27.4 | 0.00 | 0.00 | 0.00 | 75 | 1017.8 |
| 20260506041556 | 8 | 296 | 12.9 | 22.5 | 0.00 | 0.00 | 0.00 | 73 | 1017.5 |
| 20260506041021 | 8 | 293 | 12.9 | 20.9 | 0.00 | 0.00 | 0.00 | 73 | 1017.4 |
| 20260506040515 | 8 | 317 | 12.9 | 25.7 | 0.00 | 0.00 | 0.00 | 72 | 1017.3 |
| 20260506040042 | 8 | 267 | 16.1 | 25.7 | 0.00 | 0.00 | 0.00 | 71 | 1017.1 |
| 20260506035514 | 8 | 347 | 8.0 | 25.7 | 0.00 | 0.00 | 0.00 | 72 | 1017.2 |
| 20260506035014 | 9 | 281 | 11.3 | 27.4 | 0.00 | 0.00 | 0.00 | 71 | 1017.0 |
| 20260506034616 | 9 | 286 | 12.9 | 27.4 | 0.00 | 0.00 | 0.00 | 68 | 1016.9 |
| 20260506034014 | 10 | 276 | 16.1 | 27.4 | 0.00 | 0.00 | 0.00 | 68 | 1016.9 |
| 20260506033515 | 10 | 267 | 14.5 | 25.7 | 0.00 | 0.00 | 0.00 | 66 | 1016.8 |
| 20260506033039 | 10 | 331 | 14.5 | 25.7 | 0.00 | 0.00 | 0.00 | 63 | 1016.7 |
| 20260506032517 | 10 | 288 | 12.9 | 22.5 | 0.00 | 0.00 | 0.00 | 63 | 1016.8 |
| 20260506032014 | 10 | 257 | 12.9 | 29.0 | 0.00 | 0.00 | 0.00 | 65 | 1016.7 |
| 20260506031533 | 11 | 301 | 14.5 | 29.0 | 0.00 | 0.00 | 0.00 | 61 | 1016.6 |
| 20260506031017 | 11 | 266 | 12.9 | 25.7 | 0.00 | 0.00 | 0.00 | 61 | 1016.6 |
| 20260506030520 | 11 | 273 | 12.9 | 25.7 | 0.00 | 0.00 | 0.00 | 60 | 1016.5 |
| 20260506030045 | 11 | 324 | 11.3 | 25.7 | 0.00 | 0.00 | 0.00 | 61 | 1016.5 |
| 20260506025518 | 11 | 306 | 9.7 | 25.7 | 0.00 | 0.00 | 0.00 | 60 | 1016.5 |
| 20260506025018 | 11 | 305 | 12.9 | 25.7 | 0.00 | 0.00 | 0.00 | 61 | 1016.5 |
| 20260506024550 | 11 | 261 | 11.3 | 27.4 | 0.00 | 0.00 | 0.00 | 59 | 1016.4 |
| 20260506024019 | 11 | 316 | 14.5 | 29.0 | 0.00 | 0.00 | 0.00 | 58 | 1016.3 |
| 20260506023516 | 11 | 306 | 19.3 | 29.0 | 0.00 | 0.00 | 0.00 | 56 | 1016.4 |
| 20260506023106 | 12 | 299 | 19.3 | 32.2 | 0.00 | 0.00 | 0.00 | 56 | 1016.2 |
| 20260506022520 | 11 | 303 | 22.5 | 32.2 | 0.00 | 0.00 | 0.00 | 59 | 1016.2 |
| 20260506022016 | 12 | 290 | 22.5 | 32.2 | 0.00 | 0.00 | 0.00 | 55 | 1016.1 |
| 20260506021547 | 12 | 309 | 17.7 | 30.6 | 0.00 | 0.00 | 0.00 | 57 | 1016.2 |
| 20260506021019 | 12 | 301 | 20.9 | 30.6 | 0.00 | 0.00 | 0.00 | 57 | 1016.2 |
| 20260506020514 | 12 | 306 | 19.3 | 32.2 | 0.00 | 0.00 | 0.00 | 57 | 1016.3 |
| 20260506020048 | 12 | 309 | 22.5 | 32.2 | 0.00 | 0.00 | 0.00 | 57 | 1016.3 |
| 20260506015519 | 12 | 310 | 22.5 | 27.4 | 0.00 | 0.00 | 0.00 | 56 | 1016.4 |
| 20260506015017 | 12 | 299 | 20.9 | 27.4 | 0.00 | 0.00 | 0.00 | 56 | 1016.2 |
| 20260506014543 | 12 | 284 | 17.7 | 27.4 | 0.00 | 0.00 | 0.00 | 56 | 1016.2 |
| 20260506014018 | 13 | 332 | 17.7 | 27.4 | 0.00 | 0.00 | 0.00 | 55 | 1016.1 |
| 20260506013518 | 13 | 316 | 17.7 | 27.4 | 0.00 | 0.00 | 0.00 | 54 | 1016.1 |
| 20260506013044 | 13 | 313 | 17.7 | 27.4 | 0.00 | 0.00 | 0.00 | 54 | 1016.0 |
| 20260506012518 | 13 | 292 | 14.5 | 25.7 | 0.00 | 0.00 | 0.00 | 57 | 1016.1 |
| 20260506012015 | 13 | 304 | 11.3 | 25.7 | 0.00 | 0.00 | 0.00 | 57 | 1016.1 |
| 20260506011551 | 13 | 360 | 16.1 | 25.7 | 0.00 | 0.00 | 0.00 | 58 | 1016.1 |
| 20260506011020 | 13 | 311 | 17.7 | 25.7 | 0.00 | 0.00 | 0.00 | 58 | 1016.2 |
| 20260506010520 | 13 | 280 | 11.3 | 25.7 | 0.00 | 0.00 | 0.00 | 59 | 1016.2 |
| 20260506010051 | 12 | 296 | 17.7 | 27.4 | 0.00 | 0.00 | 0.00 | 59 | 1016.3 |
| 20260506005518 | 12 | 315 | 22.5 | 29.0 | 0.00 | 0.00 | 0.00 | 58 | 1016.1 |
| 20260506005018 | 12 | 299 | 19.3 | 33.8 | 0.00 | 0.00 | 0.00 | 59 | 1016.3 |
| 20260506004600 | 13 | 315 | 14.5 | 29.0 | 0.00 | 0.00 | 0.00 | 59 | 1016.1 |
| 20260506004015 | 13 | 310 | 20.9 | 29.0 | 0.00 | 0.00 | 0.00 | 59 | 1016.1 |
| 20260506003517 | 13 | 326 | 20.9 | 32.2 | 0.00 | 0.00 | 0.00 | 58 | 1015.9 |
| 20260506003103 | 13 | 308 | 19.3 | 32.2 | 0.00 | 0.00 | 0.00 | 57 | 1016.1 |
| 20260506002519 | 13 | 302 | 22.5 | 35.4 | 0.00 | 0.00 | 0.00 | 58 | 1016.2 |
| 20260506002016 | 13 | 323 | 24.1 | 35.4 | 0.00 | 0.00 | 0.00 | 57 | 1016.2 |
| 20260506001554 | 13 | 301 | 22.5 | 30.6 | 0.00 | 0.00 | 0.00 | 57 | 1016.2 |
| 20260506001017 | 14 | 291 | 17.7 | 29.0 | 0.00 | 0.00 | 0.00 | 59 | 1016.0 |
| 20260506000516 | 13 | 304 | 20.9 | 33.8 | 0.00 | 0.00 | 0.00 | 61 | 1016.0 |